Weather History for Atlantic City, NJ

Change the Weather History Date:

Wednesday, May 8, 2013

  Actual Average Record
Temperature  
Mean Temperature 64 °F 59 °F  
Max Temperature 71 °F 69 °F 91 °F (2000)
Min Temperature 56 °F 48 °F 26 °F (1981)
Degree Days  
Heating Degree Days 1 7  
Month to date heating degree days 99 66  
Since 1 July heating degree days 4738 4770  
Cooling Degree Days 0 1  
Month to date cooling degree days 0 8  
Year to date cooling degree days 15 17  
Growing Degree Days 14 (Base 50)    
Moisture  
Dew Point 55 °F    
Average Humidity 74    
Maximum Humidity 100    
Minimum Humidity 47    
Precipitation  
Precipitation T in 0.11 in 1.72 in (1998)
Month to date precipitation 0.09 0.81  
Year to date precipitation 14.95 14.74  
Snow  
Snow 0.00 in 0.00 in 0.00 in (1903)
Month to date snowfall 0.0 0.0  
Since 1 July snowfall 14.6 16.5  
Snow Depth 0.00 in    
Sea Level Pressure  
Sea Level Pressure 30.00 in    
Wind  
Wind Speed 9 mph (ESE)    
Max Wind Speed 17 mph    
Max Gust Speed 22 mph    
Visibility 8 miles    
Events Rain    
T = Trace of Precipitation, MM = Missing Value Source: NWS Daily Summary

Daily Weather History Graph

Daily Weather History Graph

Search for Another Location

Airport:

Trip Planner

Search our weather history database for the weather conditions in past years. The results will help you decide how hot, cold, wet, or windy it might be!

Date:

Astronomy

May. 08, 2013 Rise Set
Actual Time 5:51 AM EDT 7:58 PM EDT
Civil Twilight 5:21 AM EDT 8:28 PM EDT
Nautical Twilight 4:45 AM EDT 9:05 PM EDT
Astronomical Twilight 4:05 AM EDT 9:45 PM EDT
Moon 4:57 AM EDT (5/8) 6:55 PM EDT (5/8)
Length of Visible Light 15h 07m
Length of Day
14h 07m
Waning Crescent, 2% of the Moon is Illuminated
May 8
Waning Crescent
May 9
New
May 18
First Quarter
May 25
Full
May 31
Last Quarter

Hourly Weather History & Observations

Time (EDT) Temp. Dew Point Humidity Pressure Visibility Wind Dir Wind Speed Gust Speed Precip Events Conditions
12:54 AM 57.0 °F 55.0 °F 93% 30.03 in 10.0 mi East 8.1 mph - N/A   Overcast
1:08 AM 57.0 °F 55.0 °F 93% 30.03 in 10.0 mi East 10.4 mph - N/A   Overcast
1:54 AM 57.0 °F 55.9 °F 96% 30.01 in 10.0 mi East 5.8 mph - N/A   Mostly Cloudy
2:03 AM 57.9 °F 55.9 °F 93% 30.02 in 10.0 mi East 5.8 mph - N/A   Mostly Cloudy
2:30 AM 59.0 °F 57.0 °F 93% 30.01 in 10.0 mi East 6.9 mph - N/A   Overcast
2:38 AM 59.0 °F 57.0 °F 93% 30.00 in 10.0 mi East 9.2 mph - N/A   Overcast
2:54 AM 59.0 °F 57.0 °F 93% 29.99 in 10.0 mi ENE 9.2 mph - N/A   Overcast
3:06 AM 59.0 °F 57.0 °F 93% 29.99 in 10.0 mi ENE 9.2 mph - N/A   Overcast
3:46 AM 57.9 °F 55.9 °F 93% 29.98 in 10.0 mi ESE 6.9 mph - 0.00 in Rain Light Rain
3:54 AM 57.9 °F 55.9 °F 93% 29.99 in 10.0 mi East 6.9 mph - 0.00 in   Overcast
4:13 AM 57.9 °F 55.9 °F 93% 29.98 in 10.0 mi East 8.1 mph - N/A   Overcast
4:28 AM 57.9 °F 55.9 °F 93% 29.98 in 10.0 mi East 6.9 mph - N/A   Overcast
4:54 AM 57.9 °F 55.9 °F 93% 29.99 in 10.0 mi East 8.1 mph - N/A   Overcast
5:47 AM 57.9 °F 55.9 °F 93% 29.98 in 2.0 mi ENE 8.1 mph - 0.00 in   Overcast
5:54 AM 57.9 °F 55.9 °F 93% 29.99 in 1.0 mi ENE 8.1 mph - 0.00 in   Overcast
6:11 AM 57.0 °F 55.9 °F 96% 29.99 in 0.2 mi ENE 5.8 mph - N/A   Overcast
6:54 AM 57.9 °F 57.9 °F 100% 30.00 in 0.2 mi Calm Calm - N/A   Overcast
7:23 AM 57.9 °F 55.9 °F 93% 29.99 in 2.0 mi Calm Calm - 0.00 in   Overcast
7:54 AM 59.0 °F 57.0 °F 93% 29.99 in 2.0 mi ESE 6.9 mph - 0.00 in Rain Light Rain
8:40 AM 63.0 °F 61.0 °F 93% 30.00 in 2.0 mi ENE 6.9 mph - 0.00 in   Overcast
8:45 AM 63.0 °F 61.0 °F 93% 30.00 in 10.0 mi East 8.1 mph - 0.00 in   Overcast
8:54 AM 63.0 °F 60.1 °F 90% 30.00 in 10.0 mi East 6.9 mph - 0.00 in   Overcast
9:54 AM 62.1 °F 59.0 °F 90% 30.00 in 10.0 mi East 9.2 mph - N/A   Overcast
10:54 AM 64.0 °F 60.1 °F 87% 30.02 in 10.0 mi East 5.8 mph - N/A   Overcast
11:18 AM 66.0 °F 59.0 °F 78% 30.02 in 10.0 mi South 6.9 mph - N/A   Mostly Cloudy
11:26 AM 66.9 °F 60.1 °F 79% 30.02 in 10.0 mi SE 9.2 mph - N/A   Mostly Cloudy
11:54 AM 66.9 °F 59.0 °F 76% 30.02 in 10.0 mi SSE 11.5 mph - N/A   Mostly Cloudy
12:54 PM 70.0 °F 54.0 °F 57% 30.01 in 10.0 mi SSE 10.4 mph - N/A   Partly Cloudy
1:54 PM 69.1 °F 55.0 °F 61% 30.00 in 10.0 mi South 13.8 mph - N/A   Clear
2:54 PM 69.1 °F 48.9 °F 49% 29.99 in 10.0 mi South 13.8 mph - N/A   Clear
3:54 PM 69.1 °F 48.0 °F 47% 29.98 in 10.0 mi South 11.5 mph - N/A   Clear
4:54 PM 66.0 °F 50.0 °F 56% 29.98 in 10.0 mi South 16.1 mph 21.9 mph N/A   Clear
5:54 PM 64.0 °F 51.1 °F 63% 29.99 in 10.0 mi SSE 15.0 mph 20.7 mph N/A   Clear
6:54 PM 62.1 °F 51.1 °F 67% 29.99 in 10.0 mi SSE 10.4 mph - N/A   Clear
7:54 PM 57.9 °F 51.1 °F 78% 30.00 in 10.0 mi South 8.1 mph - N/A   Clear
8:54 PM 57.0 °F 51.1 °F 81% 30.01 in 10.0 mi South 6.9 mph - N/A   Clear
9:54 PM 57.0 °F 51.1 °F 81% 30.02 in 10.0 mi SSE 5.8 mph - N/A   Clear
10:54 PM 57.0 °F 52.0 °F 83% 30.01 in 10.0 mi SSE 6.9 mph - N/A   Scattered Clouds
11:54 PM 57.0 °F 53.1 °F 87% 30.01 in 10.0 mi SSW 3.5 mph - N/A   Overcast